User: anonymous   Login
Location: Bushey
(51.6333°N, 0.3667°W)
Time: 20:20:17
(UTC+00:00)
Language:

IRS-1C Rocket - Orbit

View from above orbital plane
View from above orbital plane
View from above satellite
View from above satellite

Ground track
Ground track

The orbit data is extracted from the following two-line orbital elements,

1 23753U 95072C   21136.67291367 -.00000040  00000-0  28035-5 0  9995
2 23753  98.9515 164.6897 0004741  84.9390 275.2331 14.26599426321040
Epoch (UTC): 16 May 2021 16:08:59
Eccentricity: 0.0004741
inclination: 98.9515°
perigee height: 800 km
apogee height: 806 km
right ascension of ascending node: 164.6897°
argument of perigee: 84.9390°
revolutions per day: 14.26599426
mean anomaly at epoch: 275.2331°
orbit number at epoch: 32104

The dashed part of the orbit path shows where the satellite is in the earth's shadow,  

DLR